Terminal Aerodrome Forecast
Issued by NWS St Louis, MO

Home | Current Version | Previous Version | Text Only | Print | Product List | Glossary On
Versions: 1 2 3 4 5 6 7 8 9 10 11 12 13 14 15 16 17 18 19 20 21
000
FTUS43 KLSX 221700
TAFCOU
TAF
KCOU 221738Z 2218/2318 20010KT P6SM OVC018
     FM230200 18012KT P6SM VCSH OVC015
     FM230600 17010KT 5SM -SHRA SCT009 OVC015
     FM231000 15012KT 3SM -RA OVC007=

USA.gov is the U.S. government's official web portal to all federal, state and local government web resources and services.